Zurück zum Katalog

STARLINK-35125

AktivKommunikationSSO
NORAD 65534·PAYLOAD·🇺🇸 United States

Gestartet Sep 6, 2025 von Cape Canaveral Space Force Station

Loading…

Nächste Überflüge (nächste 24 Stunden)

TLE

AktuellSource: CelesTrak SupGP

Epoche: Sep 14, 2026, 14:10 UTC

1 65534C 25200Q   26257.59076389  .00096136  00000+0  29856-2 0  2574
2 65534  97.2845 324.0842 0000983  94.6784  36.2093 15.33376632    14

Verfolge STARLINK-35125 in Echtzeit mit AllMySat

Download on the App Store